Orbital Elements at Epoch 2459200.5 (2020-Dec-17.0) TDB
Reference: JPL 16 (heliocentric ecliptic J2000)
Element | Value | Uncertainty (1-sigma) | Units |
e | .1552397950678323 | 4.2524e-08 | |
a | 2.376199273092846 | 9.3554e-09 | au |
q | 2.007318584897581 | 1.0015e-07 | au |
i | 1.477049491303431 | 3.7785e-06 | deg |
node | 59.55316011524911 | 0.00017856 | deg |
peri | 154.0249586095747 | 0.00017909 | deg |
M | 55.58407820421083 | 1.2703e-05 | deg |
tp | 2458993.928395918014 (2020-May-24.42839592) | 4.7402e-05 | TDB |
period | 1337.8971078067 3.66 | 7.9012e-06 2.163e-08 | d yr |
n | .2690789881369658 | 1.5891e-09 | deg/d |
Q | 2.745079961288112 | 1.0808e-08 | au |
|
| | Orbit Determination Parameters
Additional Information
|